Location: Kuppenheim
(48.8299°N, 8.2568°E)
Time: 05:48:32
(UTC+00:00)

ERBS - Pass Details

Date: 24 October 2021
Orbit: 393 x 407 km, 57.0° (Epoch: 30 November)

Event Time Altitude Azimuth Distance (km) Brightness Sun altitude
Rises 04:52:32 0° 202° (SSW) 2,301 5.8 -11.9°
Reaches altitude 10° 04:54:49 10° 188° (S) 1,451 4.9 -11.6°
Maximum altitude 04:57:30 24° 132° (SE) 880 4.6 -11.1°
Drops below altitude 10° 05:00:13 10° 76° (ENE) 1,469 6.3 -10.7°
Sets 05:02:32 0° 62° (ENE) 2,338 7.1 -10.3°
